RH
28 27 45 73 81 75 81 100 100 100 100 100 100 100 100 100 100 100 73 51 65 42 32 30 20 16 20 22 33 34 45 56 92 64 86 38 21 17 16 15 12 13 15 38
31 58 82 100 100 96 100 100 100 100 100 100 100 99 100 100 100 68 82 60 52 40 36 23 17 17 20 25 36 41 39 85 79 90 44 25 20 20 17 19 15 16 27 69
30 79 100 100 100 100 98 100 100 100 100 100 100 100 100 96 66 69 70 70 44 35 38 22 20 20 26 35 38 39 57 93 68 71 31 29 22 24 20 23 25 60 92 84
56 73 100 100 100 100 100 100 100 100 100 100 100 94 78 72 65 60 57 49 40 41 26 24 21 25 40 44 39 45 99 69 63 53 35 26 25 27 34 36 52 100 100 100
63 91 98 100 100 100 100 100 100 100 100 100 100 94 100 82 67 53 51 43 41 45 29 26 24 40 46 46 63 92 78 65 49 36 38 29 30 53 58 80 87 100 91 97
79 90 100 100 100 100 100 100 100 100 100 100 100 100 84 68 66 56 54 45 48 40 30 28 32 51 54 60 95 100 78 59 37 46 33 30 38 73 77 95 92 100 98 100
89 92 100 100 100 100 100 100 100 100 100 100 100 86 85 80 72 59 51 51 49 39 34 32 46 53 55 99 100 85 83 69 45 44 40 38 32 61 97 82 100 100 100 100
58 97 98 100 100 100 100 100 100 100 100 100 100 83 78 75 68 48 61 58 52 45 37 37 50 52 82 100 100 94 82 77 50 50 54 47 38 33 91 60 100 100 100 100
34 59 95 98 100 100 100 100 100 100 100 100 100 95 82 79 64 63 59 53 59 51 41 46 51 57 100 100 100 100 96 93 58 49 60 59 43 30 40 95 83 100 100 100
31 38 66 95 99 100 100 100 100 91 100 100 100 84 77 73 69 72 57 52 61 48 45 46 51 53 100 100 98 100 100 94 67 49 53 60 55 36 33 29 76 100 100 100
29 34 39 74 91 90 100 100 100 100 100 97 96 84 69 63 69 73 55 66 62 47 68 45 54 67 100 100 94 100 100 93 61 47 41 49 57 55 48 38 29 38 63 90
19 28 35 48 74 93 97 100 97 95 100 97 88 74 54 64 76 55 55 86 64 52 99 45 58 90 100 98 95 97 100 100 78 48 36 41 52 61 64 56 38 33 38 37
13 16 31 40 47 82 100 100 96 100 97 85 80 79 59 71 65 57 62 88 63 71 100 61 59 100 100 99 100 100 100 100 90 55 46 41 49 49 44 49 52 49 41 42
12 14 20 28 35 45 71 94 100 100 100 92 80 75 71 88 64 56 84 92 82 100 100 86 70 99 100 96 96 100 100 100 99 88 56 41 40 51 61 62 49 52 50 46
15 14 16 20 27 35 51 70 84 94 98 92 71 61 82 90 78 79 90 98 99 100 100 87 71 90 100 100 100 100 98 100 96 96 72 49 46 47 52 64 75 90 95 98
15 17 16 18 21 16 28 48 86 90 87 84 67 75 84 72 100 97 93 97 100 100 100 100 80 87 100 100 100 100 100 100 97 89 84 65 61 53 51 49 48 56 60 71
14 16 17 16 15 10 21 29 55 92 91 76 65 86 94 89 100 100 100 100 100 100 100 99 100 100 100 100 100 100 95 100 100 100 79 72 51 50 55 52 51 56 64 71
9 10 14 15 14 14 17 21 37 74 81 80 79 87 100 100 100 100 100 100 100 100 100 100 100 100 100 100 100 100 100 100 100 100 74 66 63 56 57 56 55 65 65 71
8 8 11 11 18 19 16 16 23 40 53 60 79 90 100 100 100 100 100 100 100 100 100 100 100 100 100 100 100 100 100 100 100 100 85 84 88 91 75 51 48 56 60 65
7 8 12 14 24 25 23 19 20 30 43 55 88 96 100 100 100 97 100 100 100 100 100 100 95 100 100 100 100 100 100 100 100 100 90 82 100 100 96 66 48 52 79 89
6 10 12 18 24 27 25 20 19 28 42 62 76 96 100 100 100 100 100 100 100 100 100 100 98 96 98 100 100 100 100 100 100 99 100 100 100 100 93 88 92 97 100 99
9 14 17 23 23 27 26 22 22 28 39 55 74 99 100 100 100 100 100 100 100 100 100 100 97 82 77 81 89 98 100 100 100 100 100 100 100 100 98 100 100 99 95 84
12 15 19 19 23 26 25 21 22 28 42 54 84 100 100 100 100 100 100 100 100 100 100 100 100 100 90 76 84 91 100 100 100 100 100 100 100 100 100 99 100 100 100 95
12 16 19 18 20 21 22 21 22 25 45 57 88 100 100 100 100 100 100 100 100 100 100 100 100 98 92 94 100 100 100 100 100 100 100 98 98 100 100 100 100 100 100 100
15 17 19 19 17 16 22 26 28 28 47 60 79 100 100 100 100 100 100 100 100 100 100 100 100 100 100 100 93 89 99 100 100 100 100 100 100 100 100 100 100 100 100 100
15 16 17 17 15 15 20 26 29 35 48 71 78 97 99 98 100 100 100 100 100 100 100 95 100 100 100 100 100 100 100 98 98 100 100 100 100 100 100 100 100 100 100 100
Wind_Speed
62 59 60 61 61 67 71 75 69 69 61 49 50 58 61 67 65 65 67 70 64 71 66 57 46 38 42 40 35 35 37 32 35 27 23 23 24 26 27 30 28 32 33 33
57 58 56 54 56 65 66 67 72 65 67 55 58 61 61 62 61 63 62 66 67 65 56 47 37 40 44 36 36 39 35 35 31 22 21 20 21 23 25 25 26 31 32 37
55 57 56 53 55 58 59 66 64 64 71 61 60 62 62 63 63 62 66 64 61 56 49 38 38 40 39 36 39 38 36 33 27 21 15 15 18 22 24 22 27 29 29 31
54 59 58 57 56 55 59 60 71 69 68 73 61 59 62 60 63 65 64 60 52 47 39 35 38 41 39 40 40 38 35 33 25 19 14 15 16 20 20 26 29 30 31 29
49 56 57 59 56 57 57 64 64 65 64 61 63 62 57 59 63 61 56 51 52 43 34 35 40 38 40 41 41 40 36 29 24 20 14 15 14 16 19 31 30 31 29 29
51 52 58 57 56 54 58 62 67 64 68 65 67 61 55 54 56 53 57 50 43 35 35 35 33 40 44 43 42 40 35 28 26 19 15 13 12 13 20 33 32 33 31 29
52 52 59 61 59 55 54 59 55 55 60 65 61 60 54 48 54 57 54 48 37 33 34 32 38 46 46 48 45 41 34 30 28 21 17 12 13 11 19 33 36 40 34 32
55 55 56 61 64 63 59 58 58 58 59 57 52 53 55 54 56 55 51 48 35 36 37 36 45 47 49 48 44 40 35 30 32 25 20 15 12 12 17 29 40 42 39 39
54 60 61 63 64 65 66 64 59 56 52 52 54 56 57 59 58 59 51 42 36 40 41 42 48 48 52 51 47 40 35 33 33 30 25 21 16 12 12 17 31 45 44 41
53 58 65 67 66 68 63 61 62 61 60 59 59 62 60 58 58 58 51 38 40 44 45 45 49 50 53 52 47 42 36 36 37 34 30 26 21 17 14 14 15 35 42 44
56 57 60 68 71 70 68 67 64 63 66 66 65 64 63 62 57 55 45 37 43 47 48 44 50 51 51 53 49 44 39 39 39 37 32 31 27 24 22 20 20 18 19 25
59 57 59 66 69 70 71 71 70 69 66 66 68 65 58 56 49 48 41 40 48 51 53 45 49 51 53 52 50 44 42 40 40 40 35 31 31 29 28 26 26 24 22 23
62 60 62 64 66 70 73 72 73 69 69 68 67 64 50 48 49 43 41 46 51 54 55 48 48 52 54 53 50 47 48 44 43 42 43 38 34 33 33 30 29 28 27 26
58 61 64 63 65 67 71 74 72 71 70 69 66 61 50 45 41 44 43 49 51 58 57 53 47 51 53 54 53 53 51 48 45 42 48 45 39 36 36 34 33 32 31 31
58 56 62 65 63 64 68 69 70 68 67 66 62 49 38 42 41 45 47 50 53 60 58 56 50 49 52 57 55 55 51 51 48 45 48 47 46 44 42 40 38 36 34 35
59 56 59 64 66 66 62 64 67 67 65 63 55 37 39 47 45 47 50 51 53 61 61 57 53 54 54 57 59 57 55 52 51 49 50 50 48 49 48 46 45 44 42 41
63 60 59 61 65 60 59 58 60 63 64 60 47 38 44 50 52 49 51 53 53 58 61 57 56 56 55 58 60 58 58 54 53 53 54 54 55 52 52 52 51 50 48 45
63 59 57 57 57 58 55 56 55 60 60 57 47 42 53 54 56 53 53 54 53 59 55 54 56 57 58 60 61 58 58 57 58 58 59 57 57 57 57 58 56 55 53 51
57 55 53 49 48 49 53 55 56 58 56 51 45 52 56 58 62 61 61 52 57 61 56 45 60 59 55 59 63 62 58 59 59 59 61 60 61 62 64 63 61 59 58 56
51 45 46 42 46 50 51 53 54 53 51 48 49 60 58 61 64 65 63 58 60 65 72 67 60 61 59 60 64 65 64 61 60 61 61 62 61 62 65 68 67 63 60 60
39 41 44 44 51 53 51 50 53 54 52 56 57 64 61 64 66 64 66 61 63 63 70 70 66 63 61 63 65 67 68 67 65 63 61 63 57 68 69 68 66 65 66 68
35 42 43 48 51 54 51 52 55 54 54 58 61 66 63 67 70 65 64 66 61 62 67 67 66 65 65 64 64 66 69 70 68 66 64 65 68 70 70 71 76 74 75 77
44 46 53 55 55 57 54 53 56 55 55 60 66 68 61 68 70 71 68 73 67 66 67 68 68 68 67 65 64 65 67 68 71 74 76 76 79 76 79 80 82 83 84 85
44 48 53 51 53 56 54 49 55 55 56 62 70 70 65 65 76 72 75 73 75 70 69 69 69 71 71 72 71 70 70 70 71 73 74 76 77 81 86 86 87 87 86 89
45 47 51 54 55 52 49 48 54 56 57 63 72 76 73 68 69 78 79 76 74 76 75 73 74 76 76 75 75 75 76 78 79 81 81 81 81 83 84 87 89 92 90 90
45 46 51 53 51 47 49 51 53 58 59 65 74 78 78 76 72 75 79 81 79 76 78 80 79 80 80 82 82 81 82 82 83 85 84 85 86 88 91 93 94 94 96 96
Wind_Direction
264 263 255 252 251 247 242 240 237 229 239 242 248 253 253 254 260 262 267 274 276 278 283 283 271 251 227 218 215 223 219 218 220 221 232 244 252 256 250 253 242 229 228 208
259 253 250 246 242 245 243 240 232 229 237 239 247 248 251 256 261 267 272 274 277 281 287 275 255 227 216 206 213 216 213 215 216 220 233 248 256 256 255 257 233 224 218 204
256 244 242 237 237 238 237 229 229 234 233 241 245 248 252 258 262 269 270 273 278 282 285 262 231 211 199 203 213 213 210 210 206 217 230 249 255 258 257 239 219 211 206 212
250 243 237 233 232 237 235 232 230 237 240 240 244 250 256 260 261 265 270 276 281 292 266 237 213 196 193 202 209 209 208 200 202 211 229 253 251 261 249 216 211 201 206 208
245 240 236 232 234 233 234 236 233 237 238 240 245 247 251 257 263 265 268 275 284 279 248 226 204 189 195 201 203 209 199 198 201 211 228 238 243 262 233 205 204 204 211 209
242 234 231 232 233 233 234 236 235 237 239 242 246 248 254 253 256 259 269 280 284 259 234 213 194 193 195 201 202 207 195 195 198 203 211 217 225 243 225 202 204 203 191 205
235 233 230 229 228 226 230 229 229 234 239 240 244 250 248 248 254 262 271 277 277 239 223 203 195 193 199 198 203 201 197 197 201 193 205 215 223 233 220 201 204 206 210 203
233 231 230 229 229 225 226 228 232 233 234 239 241 244 248 252 258 264 273 274 257 231 212 199 197 198 198 201 204 200 195 201 205 193 201 211 219 227 218 207 201 209 215 209
236 231 229 228 227 227 228 231 232 232 234 241 241 243 248 254 262 268 274 265 235 223 213 198 199 200 200 201 204 202 203 209 210 205 204 210 215 206 216 216 211 207 216 224
237 233 228 227 227 227 227 230 233 234 232 235 239 245 250 256 261 268 264 252 221 215 212 199 201 203 203 205 203 205 211 216 214 213 206 207 211 206 199 200 203 214 215 216
236 234 232 228 227 227 228 228 231 235 236 239 242 246 251 258 264 262 252 229 215 211 212 201 203 205 206 207 206 207 214 220 216 221 215 210 209 216 216 208 195 186 197 214
233 232 231 231 230 229 229 230 232 234 238 242 247 251 253 262 256 247 233 217 209 206 210 205 204 207 209 209 208 209 216 224 220 222 223 216 218 219 221 220 208 206 204 207
234 228 229 230 229 229 230 231 233 236 240 244 248 252 258 263 246 238 213 209 204 203 210 211 205 206 212 211 211 213 219 225 226 220 228 228 228 228 223 222 223 221 223 226
235 229 227 229 229 229 230 231 233 235 240 245 249 252 256 251 235 215 208 201 202 203 211 215 209 206 215 215 213 218 221 225 229 226 228 232 232 232 230 228 228 231 233 234
235 229 226 227 228 229 228 231 232 234 238 243 247 247 234 229 221 209 207 200 202 205 213 215 214 211 215 216 215 219 222 226 229 228 230 230 234 235 236 235 235 237 242 245
235 228 225 225 227 228 228 229 233 235 237 240 243 224 229 214 213 206 205 202 204 207 213 216 219 220 218 219 218 221 223 229 233 232 236 235 233 238 241 243 245 245 248 251
231 229 226 224 227 229 226 226 228 232 235 237 234 218 219 205 209 204 201 200 207 208 212 216 220 223 223 223 222 224 226 230 235 237 237 240 241 240 242 245 248 249 253 255
232 230 226 225 226 227 224 225 225 228 230 233 231 215 203 201 204 202 197 200 208 207 211 218 223 224 226 228 227 228 228 230 233 237 239 240 244 247 247 246 248 250 253 256
232 232 228 228 225 225 224 223 222 224 224 220 218 203 200 200 202 204 201 202 208 208 200 212 223 220 222 227 231 230 228 231 233 236 239 241 243 246 249 250 250 252 256 259
230 227 225 220 219 221 219 218 220 222 217 209 207 197 200 201 203 207 204 205 209 208 208 203 215 218 224 228 231 233 234 230 231 235 239 242 244 244 246 250 252 255 256 256
223 218 215 211 213 217 218 215 215 217 211 205 203 196 198 200 204 208 209 210 215 211 215 217 221 222 224 226 229 232 234 237 238 240 240 240 243 243 251 252 253 254 256 257
208 207 205 209 212 214 214 213 211 212 209 205 200 196 200 202 206 207 213 211 218 217 216 219 222 225 229 230 232 234 236 238 238 240 245 239 236 241 247 249 252 255 256 258
204 201 202 205 208 213 214 211 210 209 207 204 198 197 202 205 206 210 212 213 217 220 220 222 223 224 230 234 236 237 239 241 242 242 242 238 238 243 246 253 255 257 258 261
203 202 206 208 211 214 214 212 211 210 207 204 197 196 201 205 208 211 216 217 221 221 222 222 225 227 228 231 234 237 237 239 242 244 246 249 250 251 251 253 254 257 258 260
202 205 206 209 214 214 211 211 211 211 210 206 201 199 204 205 210 214 219 221 225 227 227 224 224 226 229 232 234 235 238 240 241 242 244 246 247 249 251 255 256 256 258 259
205 208 211 212 216 215 211 210 211 213 211 209 206 205 207 210 212 216 220 222 225 229 233 233 229 227 228 231 234 237 239 241 244 246 247 248 249 250 252 254 257 259 259 260